星链-3355 (STARLINK-3355 )

导读

STARLINK-3355是美国太空探索技术公司Starlink卫星互联网项目的一员,于2022年1月6日发射入轨,属于该项目第二批组网卫星,主要服务全球范围高速卫星互联网接入。它运行在近地轨道,通过星间链路实现组网通信,为偏远地区、海洋等传统网络覆盖盲区提供互联服务,是Starlink大规模星座部署中的重要节点。

基本信息
目录编号:
50808
目录名称:
STARLINK-3355
国际标识:
2022-001F
轨道中心:
EARTH
卫星名称:
星链-3355
卫星全名:
星链-3355 (STARLINK-3355 )
卫星状态:
在轨 (已飞行1702 天)
发射日期:
2022-01-06 UTC
国别 :
美国 (US)
星等 :
--
轨道信息
数据来源 国际轨道数据 AOE轨道数据
星历时间 2026-09-04T05:21:35+0800
10小时前
查看轨道信息
2026-09-04T02:00:00+0800
13小时前
查看轨道信息
半长轴 6848.889km 6848.88km
偏心率 0.0001172 0.0001084
轨道倾角 53.160° 53.161°
近地点辐角 81.079° 68.431°
升交点赤经 69.095° 69.749°
平近点角 279.035° 239.369°
近地点 469.949km 470km
远地点 471.555km 471.486km
周期 94.013分钟 94.013分钟
每日圈数 15.316962 15.316993
详细信息
固有亮度:
5
最大亮度:
2.5
卫星平台:
Starlink v1.5
覆盖范围:
全球
运营商:
太空探索技术公司
运营商所在国:
美国
制造商(研发单位):
太空探索技术公司
制造商所在国:
美国
使用方式:
暂无
卫星简介
星链(Starlink)计划是由太空探索技术公司(SpaceX)提出的一个巨型低轨卫星互联网星座项目,计划在2019年至2024年间在太空搭建由约1.2万颗卫星组成的“星链”网络,其中1584颗将部署在地球上空550千米处的近地轨道,并从2020年开始工作。该卫星仍在工作。
2D轨道图
3D轨道图
轨道高度分析图
轨道倾角分析图
轨道综合分析图
查看轨道综合分析图
交会数据列表
事件ID 空间交会对象 最接近时刻(TCA) 交会距离 交会风险概率(CRP) 交会风险指数(CRI) 操作
CDM_260829-200204-439005-080825
ICEYE-X4 (44390)
2026-08-29T
20:02:58+0000
2.149 km
极远距离
2.393808E-6 低风险 0.43
CDM_260904-232502-637505-080824
2026-09-04T
23:25:54+0000
2.320 km
极远距离
1.772288E-6 低风险 0.4
CDM_260830-105305-080806-935221
2026-08-30T
10:53:07+0000
2.861 km
极远距离
1.419636E-6 低风险 0.38
CDM_260829-103705-080806-877421
2026-08-29T
10:37:12+0000
2.884 km
极远距离
1.40422E-6 低风险 0.38
CDM_260829-085705-080806-931021
2026-08-29T
08:57:32+0000
2.935 km
极远距离
1.371884E-6 低风险 0.38
CDM_260829-163005-080806-829921
2026-08-29T
16:30:19+0000
2.942 km
极远距离
1.152389E-6 低风险 0.36